| time (UTC) | temp F | wind direction | speed knots | gust knots | rain 1hr in | rain 24hr in | rain mn in | humidity % | barometer mb |
| 20260504081520 | 34 | 348 | 0.0 | 1.7 | 0.00 | 0.00 | 0.00 | 91 | 1015.9 |
| 20260504050009 | 37 | 348 | 0.0 | 1.7 | 0.00 | 0.00 | 0.00 | 87 | 1015.8 |
| 20260504044514 | 37 | 348 | 0.0 | 1.7 | 0.00 | 0.00 | 0.00 | 86 | 1015.7 |
| 20260504043010 | 37 | 348 | 0.0 | 1.7 | 0.00 | 0.00 | 0.00 | 84 | 1015.7 |
| 20260504041511 | 38 | 348 | 0.0 | 0.9 | 0.00 | 0.00 | 0.00 | 84 | 1015.7 |
| 20260504040015 | 38 | 348 | 0.0 | 0.0 | 0.00 | 0.00 | 0.00 | 83 | 1015.5 |
| 20260504034516 | 38 | 348 | 0.0 | 1.7 | 0.00 | 0.00 | 0.00 | 82 | 1015.5 |
| 20260504033015 | 39 | 348 | 0.0 | 1.7 | 0.00 | 0.00 | 0.00 | 82 | 1015.4 |
| 20260504031516 | 39 | 348 | 0.0 | 0.0 | 0.00 | 0.00 | 0.00 | 81 | 1015.3 |
| 20260504030017 | 40 | 348 | 0.0 | 1.7 | 0.00 | 0.00 | 0.00 | 79 | 1015.2 |
| 20260504024520 | 40 | 348 | 0.0 | 0.0 | 0.00 | 0.00 | 0.00 | 78 | 1015.1 |
| 20260504023020 | 41 | 348 | 0.0 | 0.0 | 0.00 | 0.00 | 0.00 | 77 | 1015.1 |
| 20260504021521 | 42 | 348 | 0.0 | 1.7 | 0.00 | 0.00 | 0.00 | 76 | 1015.2 |
| 20260504020028 | 43 | 348 | 0.0 | 1.7 | 0.00 | 0.00 | 0.00 | 75 | 1015.1 |
| 20260504014538 | 43 | 348 | 0.0 | 0.0 | 0.00 | 0.00 | 0.00 | 72 | 1015.0 |
| 20260504013024 | 45 | 348 | 0.0 | 1.7 | 0.00 | 0.00 | 0.00 | 73 | 1015.0 |
| 20260504011522 | 46 | 348 | 0.0 | 1.7 | 0.00 | 0.00 | 0.00 | 69 | 1014.9 |
| 20260504010025 | 47 | 348 | 0.0 | 1.7 | 0.00 | 0.00 | 0.00 | 65 | 1014.8 |
| 20260504004524 | 48 | 348 | 0.0 | 1.7 | 0.00 | 0.00 | 0.00 | 61 | 1014.6 |
| 20260504003024 | 51 | 348 | 0.0 | 1.7 | 0.00 | 0.00 | 0.00 | 55 | 1014.4 |
| 20260504001526 | 54 | 323 | 0.9 | 2.6 | 0.00 | 0.00 | 0.00 | 44 | 1014.2 |
| 20260504000038 | 56 | 252 | 0.9 | 5.2 | 0.00 | 0.00 | 0.00 | 41 | 1014.0 |
| 20260503234508 | 57 | 300 | 1.7 | 4.3 | 0.00 | 0.00 | 0.00 | 39 | 1013.9 |
| 20260503233008 | 58 | 334 | 1.7 | 7.8 | 0.00 | 0.00 | 0.00 | 37 | 1013.8 |
| 20260503231503 | 59 | 301 | 1.7 | 8.7 | 0.00 | 0.00 | 0.00 | 36 | 1013.7 |
| 20260503230005 | 59 | 290 | 3.5 | 8.7 | 0.00 | 0.00 | 0.00 | 35 | 1013.6 |
| 20260503224504 | 60 | 274 | 3.5 | 7.8 | 0.00 | 0.00 | 0.00 | 35 | 1013.6 |
| 20260503223005 | 60 | 196 | 2.6 | 11.3 | 0.00 | 0.00 | 0.00 | 34 | 1013.5 |
| 20260503221503 | 60 | 221 | 3.5 | 7.8 | 0.00 | 0.00 | 0.00 | 34 | 1013.5 |
| 20260503220005 | 60 | 288 | 3.5 | 8.7 | 0.00 | 0.00 | 0.00 | 36 | 1013.7 |
| 20260503214515 | 60 | 273 | 3.5 | 11.3 | 0.00 | 0.00 | 0.00 | 33 | 1013.8 |
| 20260503213003 | 61 | 352 | 2.6 | 10.4 | 0.00 | 0.00 | 0.00 | 35 | 1013.7 |
| 20260503211504 | 61 | 238 | 3.5 | 8.7 | 0.00 | 0.00 | 0.00 | 33 | 1013.5 |
| 20260503210018 | 61 | 300 | 4.3 | 9.6 | 0.00 | 0.00 | 0.00 | 32 | 1013.5 |
| 20260503204510 | 60 | 262 | 6.1 | 11.3 | 0.00 | 0.00 | 0.00 | 34 | 1013.5 |
| 20260503203004 | 60 | 225 | 3.5 | 11.3 | 0.00 | 0.00 | 0.00 | 32 | 1013.6 |
| 20260503201508 | 60 | 307 | 4.3 | 11.3 | 0.00 | 0.00 | 0.00 | 35 | 1013.8 |
| 20260503200004 | 61 | 303 | 5.2 | 13.0 | 0.00 | 0.00 | 0.00 | 34 | 1013.9 |
| 20260503194506 | 60 | 321 | 2.6 | 14.8 | 0.00 | 0.00 | 0.00 | 34 | 1014.0 |
| 20260503193006 | 60 | 202 | 2.6 | 10.4 | 0.00 | 0.00 | 0.00 | 1014.2 | |
| 20260503191508 | 59 | 312 | 2.6 | 12.2 | 0.00 | 0.00 | 0.00 | 40 | 1014.6 |
| 20260503190005 | 60 | 288 | 5.2 | 16.5 | 0.00 | 0.00 | 0.00 | 37 | 1014.8 |
| 20260503184508 | 58 | 326 | 7.0 | 13.9 | 0.00 | 0.00 | 0.00 | 34 | 1014.9 |
| 20260503183007 | 59 | 352 | 4.3 | 13.0 | 0.00 | 0.00 | 0.00 | 37 | 1015.0 |
| 20260503181506 | 57 | 256 | 4.3 | 13.0 | 0.00 | 0.00 | 0.00 | 39 | 1015.0 |
| 20260503180008 | 56 | 217 | 5.2 | 18.2 | 0.00 | 0.00 | 0.00 | 41 | 1015.1 |
| 20260503174509 | 56 | 314 | 6.1 | 13.9 | 0.00 | 0.00 | 0.00 | 37 | 1015.2 |
| 20260503173007 | 56 | 269 | 6.1 | 13.9 | 0.00 | 0.00 | 0.00 | 37 | 1015.4 |
| 20260503171508 | 57 | 277 | 3.5 | 13.9 | 0.00 | 0.00 | 0.00 | 39 | 1015.3 |